Regional Weather Roundup
Issued by NWS

Home | Current Version | Previous Version | Text Only | Print | Product List | Glossary Off
Versions: 1 2 3 4 5 6 7 8 9 10 11 12 13 14 15 16 17 18 19 20 21 22 23 24 25 26 27 28 29 30 31 32 33 34 35 36 37 38 39 40 41 42 43 44 45 46 47

000
ASUS45 KBOU 231307
RWRCO

WEATHER ROUNDUP FOR COLORADO
NATIONAL WEATHER SERVICE DENVER/BOULDER CO
700 AM MDT WED JUL 23 2014

NOTE: "FAIR" INDICATES FEW OR NO CLOUDS BELOW 12000 FEET WITH NO
SIGNIFICANT WEATHER AND/OR OBSTRUCTIONS TO VISIBILITY.

COZ001>005-013-030-031-231400-
...NORTHWEST COLORADO...

CITY           SKY/WX    TMP DP  RH WIND       PRES   REMARKS
CRAIG          CLEAR     46  41  82 CALM      30.37S
HAYDEN         SUNNY     57  37  47 SE9       30.39S
MEEKER         CLEAR     53  35  50 MISG      30.39R
MOUNT WERNER   NOT AVBL
STEAMBOAT SPGS SUNNY     53  38  58 CALM      30.43R
WALDEN         SUNNY     50  39  66 CALM      30.54S
$$

COZ006>008-011-231400-
...WEST CENTRAL VALLEYS...

CITY           SKY/WX    TMP DP  RH WIND       PRES   REMARKS
GRAND JUNCTION CLEAR     71  32  23 S9        30.25R
MONTROSE       PTCLDY    66  43  43 S5        30.36S
EAGLE          SUNNY     55  41  58 CALM      30.48R
RIFLE          CLEAR     63  35  35 CALM      30.34R
DELTA          PTCLDY    68  43  40 N5        30.32R
NUCLA          NOT AVBL
$$

COZ017>023-064>068-231400-
...SOUTHWEST COLORADO...

CITY           SKY/WX    TMP DP  RH WIND       PRES   REMARKS
DURANGO        PTCLDY    61  55  81 CALM      30.44S
CORTEZ         CLEAR     72  42  34 CALM      30.36R
PAGOSA SPRINGS PTCLDY    57  44  62 CALM      30.54R
TELLURIDE      MOCLDY    63  37  39 E3        30.62S
WOLF CREEK PAS NOT AVBL
$$

COZ009-010-012-014-032>034-037-058>063-231400-
...CENTRAL COLORADO...

CITY           SKY/WX    TMP DP  RH WIND       PRES   REMARKS
ASPEN          CLEAR     63  41  44 S7        30.51R
BUENA VISTA    SUNNY     55  43  64 N3        30.59S
COPPER MTN     SUNNY     59  36  41 S21       30.87S
BERTHOUD PASS  FAIR      48  34  57 MISG      30.93R
COTTONWOOD PAS SUNNY     61  37  41 CALM      30.72R
GUNNISON       PTCLDY    55  39  54 N9        30.58S
KREMMLING      SUNNY     50  41  71 CALM      30.54R
LEADVILLE      SUNNY     47  39  74 CALM      30.72R
MONARCH PASS   MOSUNNY   52  37  58 SW16      30.97S
SALIDA         SUNNY    N/A N/A N/A NW7       30.64R
SUNLIGHT       CLEAR     59  34  38 CALM      30.77S
WILKERSON PASS MOSUNNY   54  36  50 SW9G18    30.85S
$$

COZ069>075-231400-
...SAN LUIS VALLEY/SANGRE DE CRISTO MOUNTAINS...

CITY           SKY/WX    TMP DP  RH WIND       PRES   REMARKS
ALAMOSA        MOSUNNY   61  46  57 N3        30.53S
LA VETA PASS   SUNNY     59  41  51 E5        30.74R
SAGUACHE       MOSUNNY   61  43  51 NW9       30.57S
$$

COZ035-036-038>040-231400-
...NORTHERN COLORADO FRONT RANGE...

CITY           SKY/WX    TMP DP  RH WIND       PRES   REMARKS
DENVER INTL AP MOSUNNY   67  62  84 W10       30.35R
DMNS CITY PARK   N/A     68  60  76 NW5       30.35S
AURORA         MOSUNNY   65  51  61 SW5       30.37S
FRONT RANGE AP NOT AVBL
ERIE MUNI ARPT SUNNY     65  63  92 NW6       30.34S
BOULDER MUN AP MOSUNNY   64  50  59 CALM      30.35S
CENTENNIAL     MOSUNNY   67  46  47 CALM      30.39R
BROOMFIELD     NOT AVBL
FORT COLLINS   MOSUNNY   66  61  82 N6        30.35R
LONGMONT       PTSUNNY   66  61  85 CALM      30.36R
$$

COZ041-046-047-076>085-087-088-231400-
...PIKES PEAK/PALMER DIVIDE AND SOUTHERN FOOTHILLS...

CITY           SKY/WX    TMP DP  RH WIND       PRES   REMARKS
COLO. SPRINGS  MOSUNNY   66  51  58 NE7       30.42R
A. F. ACADEMY  SUNNY     61  47  61 N7        30.45R
ELLICOTT       SUNNY     69  57  65 SE5       30.40R
FALCON         SUNNY     65  53  63 CALM      30.48R
FORT CARSON    SUNNY     67  48  51 NW8       30.39R
LIMON          SUNNY     65  59  81 E3        30.37R
MONUMENT HILL  SUNNY     63  46  55 S7        30.47R
TRINIDAD       SUNNY     68  51  54 SW13      30.39R
$$

COZ042>045-048>051-090-091-231400-
...NORTHEAST COLORADO...

CITY           SKY/WX    TMP DP  RH WIND       PRES   REMARKS
GREELEY ARPT   CLOUDY    64  59  82 E6        30.33S
AKRON          CLOUDY    66  64  93 SE14G23   30.32F FOG
BURLINGTON     FOG       67  66  97 SE14      30.31F VSB 1/2
WRAY             N/A     70  69  95 SE17      30.28F
STERLING       CLOUDY    72  68  88 SE7       30.30R
HOLYOKE        CLOUDY    68  64  88 SE10      30.30S FOG
FORT MORGAN    CLOUDY    67  63  88 SE12G18   30.32S
$$

COZ086-089-092>099-231400-
...SOUTHEAST COLORADO...

CITY           SKY/WX    TMP DP  RH WIND       PRES   REMARKS
PUEBLO         SUNNY     68  55  63 NE9       30.30R
LA JUNTA       SUNNY     70  62  76 CALM      30.28R
LAMAR          SUNNY     69  62  78 CALM      30.24R
SPRINGFIELD      N/A     70  64  81 W3        30.30R
$$


USA.gov is the U.S. government's official web portal to all federal, state and local government web resources and services.